Theta_e
331 321 319 319 317 316 317 324 330 335 339 341 342 342 342 341 340 338 338 338 337 335 332 330 328 327 323 319 316 315 315 316 317 319 323 330 338 342 342 343 348 347 340
325 320 319 319 318 316 316 320 326 330 334 339 341 342 342 341 339 337 335 335 331 327 324 321 319 318 317 315 312 310 309 309 309 310 315 319 325 336 342 341 346 347 342
324 319 319 319 318 316 316 317 322 327 333 337 340 342 341 340 336 333 331 329 323 320 319 319 318 315 315 315 314 314 314 313 312 309 308 312 330 336 338 341 341 343 341
324 319 319 319 318 317 316 316 319 324 329 333 339 340 340 339 335 329 327 321 317 316 315 314 313 316 318 318 317 317 316 315 315 314 322 331 324 336 336 339 341 341 342
325 319 319 319 318 317 316 316 318 320 325 329 334 336 337 336 331 327 322 316 315 314 313 314 317 318 318 319 320 322 323 325 317 326 336 332 330 329 323 329 340 341 340
325 321 319 319 319 317 316 316 317 318 322 326 329 332 332 330 327 323 317 315 315 313 316 320 320 320 322 323 325 325 326 328 328 338 340 336 332 330 325 322 324 342 341
327 325 319 319 319 318 317 316 316 316 319 323 326 327 326 325 323 319 316 315 314 313 319 322 320 323 324 327 328 329 330 330 329 332 337 338 335 334 327 329 325 325 342
328 328 319 319 318 319 317 316 315 315 316 318 321 323 322 322 320 317 315 314 313 314 319 321 322 325 326 327 330 333 331 330 329 332 337 335 335 334 334 332 316 316 333
333 332 325 319 318 318 318 317 316 315 315 315 315 317 318 318 316 315 315 313 313 314 320 321 323 325 326 326 330 330 329 325 324 323 334 333 336 335 334 331 321 311 320
342 338 334 322 319 318 318 318 316 315 315 314 315 315 315 315 314 314 314 313 313 314 318 320 324 324 326 327 328 328 326 323 323 328 329 333 336 336 335 331 324 318 324
345 343 338 334 321 319 318 318 317 316 315 314 314 315 315 315 315 314 314 313 313 315 317 320 324 326 327 329 327 327 326 327 327 334 335 334 337 335 334 333 328 324 332
350 347 342 338 333 322 320 319 318 318 317 315 315 315 315 316 315 315 314 313 314 315 316 319 324 328 329 330 327 327 330 333 332 335 335 336 335 334 331 329 328 326 334
347 350 347 344 340 334 325 321 320 319 318 317 316 316 317 318 318 317 317 316 317 319 319 321 325 329 329 330 328 333 336 338 335 335 334 335 334 331 328 325 325 328 333
342 352 352 347 345 341 331 333 332 330 322 319 318 318 319 320 320 320 323 326 324 324 324 323 323 326 328 329 327 333 337 339 338 336 334 334 332 329 329 325 320 327 331
338 345 350 346 345 345 342 340 339 339 338 337 332 328 324 325 323 321 325 330 331 329 327 326 325 326 327 329 329 335 337 340 337 335 334 333 332 332 331 327 323 324 329
336 337 337 338 341 346 346 342 342 341 341 341 342 342 340 334 330 327 325 331 333 333 331 330 328 328 332 333 335 337 338 339 335 336 335 334 334 332 332 329 327 326 329
335 334 336 339 338 348 348 347 346 344 344 345 345 345 343 341 337 335 332 329 334 335 335 333 332 330 336 336 337 339 340 337 337 336 335 334 335 333 332 331 329 327 328
334 334 337 343 344 346 347 347 349 348 347 347 347 346 345 344 342 338 337 335 333 336 337 335 334 334 334 340 340 341 340 338 337 336 336 334 334 335 333 331 330 330 329
335 334 335 345 347 348 348 344 338 337 340 348 350 348 348 346 345 341 340 338 338 336 337 337 336 337 335 337 340 338 337 336 339 337 336 334 335 335 334 333 332 331 331
332 332 332 336 342 343 340 341 343 343 339 339 342 346 349 348 348 344 342 341 339 339 337 337 337 339 338 336 339 338 336 338 338 337 336 335 335 335 333 333 333 333 332
333 333 332 334 335 337 340 345 343 341 341 345 346 344 346 347 349 347 342 343 342 342 338 338 336 337 336 336 337 336 336 339 337 336 335 334 334 332 332 332 332 332 332
331 337 338 335 335 336 336 340 340 340 343 343 339 337 342 344 348 349 345 344 345 343 342 339 338 337 335 336 335 337 333 335 335 336 336 334 333 333 332 332 332 332 331
332 339 337 335 334 334 333 338 338 337 337 339 343 341 341 344 349 349 347 345 344 345 342 341 339 337 337 336 335 336 335 334 329 333 334 333 333 333 333 333 333 332 331
339 339 336 335 333 332 331 330 330 338 340 337 335 341 344 346 349 348 347 346 344 345 343 342 339 339 336 334 335 339 336 334 328 329 332 332 333 332 332 332 332 332 329
328 337 335 333 333 332 331 332 332 336 338 338 340 348 347 348 348 348 347 346 345 345 345 341 339 337 335 336 338 336 335 334 332 327 327 330 333 333 331 332 331 329 327
324 325 329 334 335 333 332 332 334 340 342 343 347 349 348 347 348 348 346 344 343 345 343 341 341 338 335 336 337 335 335 332 329 328 326 326 327 330 331 332 328 330 328
Wind_Speed
36 37 33 30 26 24 22 21 19 18 15 14 13 12 12 12 12 13 12 12 11 9 8 7 6 5 5 4 3 2 1 0 0 1 3 4 4 4 4 6 7 4 7
46 40 36 33 29 26 24 22 20 19 18 15 13 12 11 11 11 11 10 10 9 7 6 6 5 4 4 3 3 3 2 1 0 1 2 3 2 1 2 2 3 4 5
44 42 38 34 31 28 25 23 21 20 18 16 14 12 11 10 10 10 9 8 7 6 5 5 4 4 4 4 4 4 4 3 2 1 2 2 3 1 1 0 1 3 6
44 43 39 35 32 29 27 24 22 21 19 17 15 13 12 10 9 8 8 8 7 7 6 5 5 5 4 3 4 3 3 3 2 3 3 3 6 5 2 2 2 3 4
41 42 39 35 32 30 27 25 23 21 20 18 16 14 12 11 10 9 9 8 8 7 7 7 6 5 5 4 3 2 2 2 2 2 4 4 13 8 2 3 2 4 4
40 39 37 34 32 30 28 25 23 22 21 19 18 16 15 13 12 11 10 10 9 8 8 8 7 7 5 4 3 2 1 1 2 1 1 4 5 5 5 2 3 4 6
39 37 36 34 32 29 27 26 25 23 22 21 19 18 17 16 15 13 13 12 12 10 10 10 9 9 8 6 5 4 3 3 4 4 6 8 9 7 6 4 6 8 7
41 36 36 33 32 29 27 26 25 23 22 22 21 20 19 18 17 16 16 14 14 13 13 12 11 11 9 8 7 6 6 5 6 7 7 8 11 9 6 3 3 8 8
36 34 35 35 33 29 28 26 24 24 23 22 22 22 22 21 20 19 19 17 17 16 16 14 14 12 11 9 9 8 7 7 8 8 9 6 8 9 6 4 2 5 9
32 32 34 34 33 31 29 26 25 25 24 24 24 24 24 24 23 22 22 21 19 19 18 16 16 14 13 12 11 9 8 7 7 7 6 7 10 11 7 4 2 4 7
33 31 29 32 34 32 30 29 27 26 25 25 25 26 25 26 25 25 24 23 22 22 20 19 18 16 15 14 13 11 11 10 7 8 6 9 11 10 7 5 4 7 9
32 36 35 32 32 33 31 30 30 29 29 29 29 29 29 28 27 27 27 26 25 24 23 21 21 19 18 18 16 14 14 10 10 10 12 17 14 10 6 5 7 10 10
36 36 38 36 30 30 33 32 31 32 31 32 31 31 31 30 29 29 28 28 27 26 25 24 23 23 23 21 19 18 18 15 12 12 11 13 14 9 5 6 8 10 12
8 27 33 33 29 27 29 31 30 29 33 33 35 34 34 34 33 31 30 29 28 29 29 27 26 27 26 23 21 19 20 21 16 13 8 13 12 8 7 6 7 11 12
28 11 16 29 29 29 26 32 30 31 29 30 32 33 36 36 36 34 33 31 31 31 30 30 29 28 27 25 22 23 22 18 13 15 9 9 11 11 9 7 7 11 13
8 13 24 29 26 29 31 32 31 29 29 30 30 30 31 34 35 35 35 32 33 32 32 30 31 31 29 25 24 24 23 22 17 15 13 11 13 13 12 7 8 9 13
18 11 11 34 25 32 34 34 29 29 29 30 31 30 30 33 34 33 34 36 35 32 32 30 29 31 31 28 28 25 23 20 18 17 14 13 12 15 15 11 10 11 11
34 35 52 36 30 38 39 39 35 30 32 30 28 32 32 33 36 35 34 35 35 32 28 32 32 31 33 29 32 27 19 15 24 23 21 17 16 17 18 15 13 12 13
31 30 30 39 41 46 39 33 30 29 31 30 28 31 29 35 37 39 38 36 31 33 33 30 30 31 30 29 22 15 16 18 20 20 22 20 18 16 18 14 15 15 12
30 31 33 31 31 31 25 22 21 21 25 27 31 31 32 36 40 41 38 35 31 32 33 33 26 26 29 20 15 16 15 19 20 21 23 20 18 16 15 16 16 17 16
30 31 31 30 29 30 26 24 24 25 27 28 30 31 34 29 37 39 37 33 30 31 35 33 30 26 19 18 11 11 17 17 20 20 20 21 18 18 17 17 16 15 16
31 30 35 38 34 29 28 26 27 27 27 30 30 34 35 32 34 39 37 33 30 31 26 31 27 20 21 20 11 3 1 8 18 24 22 19 16 15 16 16 13 16 15
24 34 39 38 38 36 31 30 29 27 25 21 22 30 35 31 31 33 36 37 31 25 27 25 26 24 18 18 17 8 3 3 1 1 8 10 9 10 14 13 15 16 15
14 29 34 34 33 33 32 32 33 26 20 31 25 25 34 29 28 31 30 30 30 21 27 23 27 22 22 17 13 19 13 6 3 2 4 7 8 10 12 11 15 17 15
15 19 30 32 33 34 34 36 36 30 29 29 22 25 28 26 27 28 26 24 24 17 23 22 22 22 22 18 13 9 17 11 8 3 3 3 7 8 9 9 15 17 20
28 27 25 28 33 35 39 40 35 31 26 22 19 28 28 27 23 22 21 19 17 15 21 20 20 23 23 19 14 14 12 8 6 4 2 2 3 2 3 6 7 15 13
Wind_Direction
157 154 151 148 147 147 146 145 146 143 144 144 142 138 132 130 128 127 126 127 123 123 124 126 130 133 131 138 153 154 155 272 336 90 85 77 68 70 88 109 109 123 102
154 156 155 151 151 153 153 153 152 150 150 152 152 147 145 142 140 134 134 136 133 133 134 134 137 130 121 116 109 90 92 93 337 198 169 155 79 87 78 128 142 161 139
155 159 156 153 154 156 157 159 160 157 158 157 158 160 158 158 156 147 147 147 142 145 146 141 137 127 121 111 92 78 69 68 73 126 156 183 172 167 124 192 116 148 149
159 160 157 156 156 159 161 164 166 164 165 164 166 169 169 170 173 165 167 169 165 169 166 166 152 144 128 125 101 90 77 71 77 108 68 22 219 208 139 82 97 130 160
163 162 159 158 159 161 165 167 171 172 173 171 173 178 182 186 188 190 189 188 186 182 178 171 162 157 160 159 133 118 95 85 123 93 44 87 138 172 160 121 142 146 163
166 166 162 162 163 165 168 171 175 177 181 180 182 186 191 199 201 204 205 200 198 193 188 180 176 185 184 177 175 190 201 204 193 175 72 285 233 235 236 247 221 208 175
168 172 167 166 168 169 172 175 180 184 185 187 190 194 199 207 208 213 215 210 207 202 198 194 195 196 197 202 209 219 239 257 257 261 296 301 212 221 215 238 254 220 207
169 174 172 171 174 175 177 181 185 190 192 194 197 203 207 211 215 219 221 217 213 210 208 205 208 206 211 218 230 243 265 276 271 256 271 322 231 211 209 259 266 210 209
173 172 175 177 179 180 182 186 191 197 199 203 207 209 213 216 218 221 223 221 219 217 214 215 217 216 221 228 238 252 267 286 287 270 247 310 245 209 212 229 252 225 204
172 173 176 181 184 183 186 192 198 203 208 211 214 217 219 221 222 223 224 223 223 222 220 221 224 223 228 232 240 253 263 266 275 267 237 253 240 213 220 225 230 223 192
172 175 176 183 188 189 192 196 202 209 213 218 221 222 224 225 223 224 226 227 226 226 225 226 228 229 234 237 240 244 254 262 265 240 261 264 225 213 218 232 227 211 192
170 178 179 183 188 193 197 202 206 210 215 219 223 225 226 227 227 228 229 230 231 230 229 229 230 231 236 240 242 244 249 264 242 254 269 242 214 213 227 251 226 209 191
179 173 181 176 178 189 199 205 210 214 218 223 226 229 229 229 229 230 233 230 230 230 229 228 230 232 235 240 243 244 250 258 248 253 250 219 217 219 240 268 232 210 197
120 161 180 179 175 183 190 203 203 210 220 227 231 231 230 229 229 228 231 231 231 230 230 230 232 235 237 240 245 242 255 256 251 256 255 232 216 225 253 258 237 211 204
97 99 198 181 181 183 191 207 207 212 218 224 230 231 231 231 230 228 229 231 232 231 232 231 234 236 238 240 244 240 245 247 248 244 266 226 228 232 239 248 237 215 213
117 150 226 228 213 188 189 204 211 216 224 226 230 230 228 233 232 230 228 224 229 229 230 234 235 234 236 238 237 241 238 240 245 246 252 249 251 236 238 242 230 223 218
165 125 297 253 203 200 197 199 208 215 219 226 230 233 233 228 229 228 228 224 223 228 227 228 235 232 235 238 240 241 238 235 236 234 239 249 254 240 245 242 236 238 231
174 174 202 203 208 211 208 210 207 206 212 224 230 233 238 238 229 227 224 224 219 223 224 224 225 231 228 233 233 238 225 242 241 245 248 256 254 255 243 247 241 241 241
185 193 186 189 197 202 204 207 211 217 225 225 229 230 234 239 235 226 221 224 218 218 224 223 224 229 231 233 217 227 242 255 239 244 249 252 254 256 252 240 239 242 244
214 203 198 185 183 191 200 214 222 229 233 232 233 237 239 233 233 228 218 221 216 220 222 226 227 225 223 220 219 232 249 246 245 248 254 252 250 233 229 238 239 239 241
248 225 219 189 185 183 188 196 214 225 234 237 239 243 241 238 229 224 214 212 210 220 219 224 231 228 211 213 209 240 262 243 253 254 254 246 250 254 253 259 241 244 234
257 220 200 192 188 189 193 200 214 227 238 239 250 252 242 235 227 220 212 204 211 218 221 221 223 214 216 208 210 195 292 275 259 252 254 249 252 255 257 264 250 232 236
254 214 198 193 196 199 200 204 215 229 243 241 244 249 240 226 221 213 213 208 214 218 220 220 221 215 191 194 211 190 198 220 333 103 217 244 247 257 258 255 247 222 206
247 218 194 193 200 206 210 216 221 220 223 237 244 256 222 214 207 208 208 204 213 216 224 223 221 212 202 201 220 220 234 220 160 317 242 242 248 263 267 246 229 211 192
217 215 208 207 209 211 214 218 222 224 232 245 245 219 200 191 200 200 202 205 214 216 227 212 212 205 199 204 206 224 227 223 213 144 235 251 244 265 262 238 214 192 195
227 213 212 208 212 217 220 221 222 221 223 230 222 193 183 185 184 190 195 217 213 215 215 211 218 213 211 216 203 218 224 189 198 168 165 223 233 285 212 228 196 182 194